Location: Hastringsfeld
(50.9620°N, 10.4787°E)
Time: 19:35:26
(UTC+00:00)

USA 229 DEB - Pass Details

Date: 26 September 2023
Orbit: 905 x 1307 km, 63.4° (Epoch: 10 November)

Event Time Altitude Azimuth Distance (km) Brightness Sun altitude
Rises 03:48:30 0° 314° (NW) 3,905 6.3 -13.5°
Reaches altitude 10° 03:51:05 10° 317° (NW) 3,002 5.8 -13.1°
Maximum altitude 03:58:20 71° 41° (NE) 1,266 4.3 -12.0°
Drops below altitude 10° 04:06:13 10° 126° (SE) 3,255 6.9 -10.8°
Sets 04:09:07 0° 128° (SE) 4,252 7.5 -10.3°
